Time,TemperatureF,DewpointF,PressureIn,WindDirection,WindDirectionDegrees,WindSpeedMPH,WindSpeedGustMPH,Humidity,HourlyPrecipIn,Conditions,Clouds,dailyrainin,SoftwareType,DateUTC
2013-03-25 00:00:00,20.1,1.7,30.21,SW,234,0.0,0.0,44,0.00,,---,0.00,VWS V14.01,2013-03-25 06:00:00,
2013-03-25 00:05:00,19.9,1.5,30.21,SW,234,0.0,0.0,44,0.00,,---,0.00,VWS V14.01,2013-03-25 06:05:00,
2013-03-25 00:10:00,19.8,1.4,30.21,SW,234,0.0,0.0,44,0.00,,---,0.00,VWS V14.01,2013-03-25 06:10:00,
2013-03-25 00:15:00,19.6,1.2,30.21,SW,234,0.0,0.0,44,0.00,,---,0.00,VWS V14.01,2013-03-25 06:15:00,
2013-03-25 00:20:00,19.4,1.1,30.21,SW,234,0.0,0.0,44,0.00,,---,0.00,VWS V14.01,2013-03-25 06:20:00,
2013-03-25 00:25:00,19.0,0.7,30.21,SW,234,0.0,0.0,44,0.00,,---,0.00,VWS V14.01,2013-03-25 06:25:00,
2013-03-25 00:30:00,18.7,0.4,30.21,SW,234,0.0,0.0,44,0.00,,---,0.00,VWS V14.01,2013-03-25 06:30:00,
2013-03-25 00:35:00,18.7,0.4,30.21,SW,234,0.0,0.0,44,0.00,,---,0.00,VWS V14.01,2013-03-25 06:35:00,
2013-03-25 00:40:00,19.0,1.2,30.21,WSW,245,0.0,0.0,45,0.00,,---,0.00,VWS V14.01,2013-03-25 06:40:00,
2013-03-25 00:45:00,19.6,2.2,30.21,WSW,245,0.0,0.0,46,0.00,,---,0.00,VWS V14.01,2013-03-25 06:45:00,
2013-03-25 00:50:00,20.1,3.1,30.21,WSW,245,0.0,0.0,47,0.00,,---,0.00,VWS V14.01,2013-03-25 06:50:00,
2013-03-25 00:55:00,20.3,2.8,30.21,WSW,245,0.0,0.0,46,0.00,,---,0.00,VWS V14.01,2013-03-25 06:55:00,
2013-03-25 01:00:00,20.3,2.4,30.21,SSW,207,0.0,0.0,45,0.00,,---,0.00,VWS V14.01,2013-03-25 07:00:00,
2013-03-25 01:05:00,20.5,2.5,30.21,SSW,195,2.7,3.6,45,0.00,,---,0.00,VWS V14.01,2013-03-25 07:05:00,
2013-03-25 01:10:00,20.3,2.4,30.21,SSW,205,0.0,3.6,45,0.00,,---,0.00,VWS V14.01,2013-03-25 07:10:00,
2013-03-25 01:15:00,20.1,2.2,30.21,SW,217,0.0,0.0,45,0.00,,---,0.00,VWS V14.01,2013-03-25 07:15:00,
2013-03-25 01:20:00,19.6,1.7,30.21,SW,218,0.0,0.0,45,0.00,,---,0.00,VWS V14.01,2013-03-25 07:20:00,
2013-03-25 01:25:00,19.0,1.7,30.21,SW,218,0.0,0.0,46,0.00,,---,0.00,VWS V14.01,2013-03-25 07:25:00,
2013-03-25 01:30:00,19.2,1.8,30.21,SW,222,0.0,0.0,46,0.00,,---,0.00,VWS V14.01,2013-03-25 07:30:00,
2013-03-25 01:35:00,19.0,1.7,30.21,SW,226,0.0,0.0,46,0.00,,---,0.00,VWS V14.01,2013-03-25 07:35:00,
2013-03-25 01:40:00,19.0,2.1,30.21,SW,226,0.0,0.0,47,0.00,,---,0.00,VWS V14.01,2013-03-25 07:40:00,
2013-03-25 01:45:00,19.0,2.1,30.21,West,274,2.7,2.7,47,0.00,,---,0.00,VWS V14.01,2013-03-25 07:45:00,
2013-03-25 01:50:00,19.0,2.1,30.21,West,275,3.6,4.0,47,0.00,,---,0.00,VWS V14.01,2013-03-25 07:50:00,
2013-03-25 01:55:00,18.9,2.0,30.21,West,277,2.2,4.0,47,0.00,,---,0.00,VWS V14.01,2013-03-25 07:55:00,
2013-03-25 02:00:00,18.5,1.6,30.21,West,276,0.0,2.2,47,0.00,,---,0.00,VWS V14.01,2013-03-25 08:00:00,
2013-03-25 02:05:00,18.1,1.3,30.21,WSW,255,0.0,2.2,47,0.00,,---,0.00,VWS V14.01,2013-03-25 08:05:00,
2013-03-25 02:10:00,18.0,1.1,30.21,WSW,255,0.0,2.2,47,0.00,,---,0.00,VWS V14.01,2013-03-25 08:10:00,
2013-03-25 02:15:00,18.0,1.1,30.21,WSW,255,0.0,0.0,47,0.00,,---,0.00,VWS V14.01,2013-03-25 08:15:00,
2013-03-25 02:20:00,17.6,1.3,30.21,West,259,0.0,0.0,48,0.00,,---,0.00,VWS V14.01,2013-03-25 08:20:00,
2013-03-25 02:25:00,17.8,1.9,30.21,West,260,0.0,0.0,49,0.00,,---,0.00,VWS V14.01,2013-03-25 08:25:00,
2013-03-25 02:30:00,17.8,1.9,30.21,West,260,0.0,0.0,49,0.00,,---,0.00,VWS V14.01,2013-03-25 08:30:00,
2013-03-25 02:35:00,18.1,2.6,30.21,West,267,0.0,0.0,50,0.00,,---,0.00,VWS V14.01,2013-03-25 08:35:00,
2013-03-25 02:40:00,18.1,2.6,30.21,West,265,0.0,0.0,50,0.00,,---,0.00,VWS V14.01,2013-03-25 08:40:00,
2013-03-25 02:45:00,17.8,1.9,30.21,West,264,0.0,0.0,49,0.00,,---,0.00,VWS V14.01,2013-03-25 08:45:00,
2013-03-25 02:50:00,17.4,1.5,30.21,West,266,0.0,0.0,49,0.00,,---,0.00,VWS V14.01,2013-03-25 08:50:00,
2013-03-25 02:55:00,17.4,2.0,30.21,West,266,0.0,0.0,50,0.00,,---,0.00,VWS V14.01,2013-03-25 08:55:00,
2013-03-25 03:00:00,17.1,1.6,30.21,West,267,0.0,0.0,50,0.00,,---,0.00,VWS V14.01,2013-03-25 09:00:00,
2013-03-25 03:05:00,17.1,2.1,30.21,WSW,253,0.0,0.0,51,0.00,,---,0.00,VWS V14.01,2013-03-25 09:05:00,
2013-03-25 03:10:00,17.1,2.1,30.21,West,270,0.0,0.0,51,0.00,,---,0.00,VWS V14.01,2013-03-25 09:10:00,
2013-03-25 03:15:00,17.2,2.2,30.21,West,261,0.0,0.0,51,0.00,,---,0.00,VWS V14.01,2013-03-25 09:15:00,
2013-03-25 03:20:00,17.1,2.1,30.21,West,266,0.0,2.7,51,0.00,,---,0.00,VWS V14.01,2013-03-25 09:20:00,
2013-03-25 03:25:00,16.9,1.9,30.21,West,265,0.0,2.7,51,0.00,,---,0.00,VWS V14.01,2013-03-25 09:25:00,
2013-03-25 03:30:00,16.7,1.7,30.21,WSW,255,0.0,0.0,51,0.00,,---,0.00,VWS V14.01,2013-03-25 09:30:00,
2013-03-25 03:35:00,16.9,1.9,30.21,SW,230,0.0,0.0,51,0.00,,---,0.00,VWS V14.01,2013-03-25 09:35:00,
2013-03-25 03:40:00,17.1,1.6,30.21,SSW,196,0.0,0.0,50,0.00,,---,0.00,VWS V14.01,2013-03-25 09:40:00,
2013-03-25 03:45:00,17.1,1.6,30.21,SSW,204,0.0,0.0,50,0.00,,---,0.00,VWS V14.01,2013-03-25 09:45:00,
2013-03-25 03:50:00,17.1,2.1,30.21,SSW,204,0.0,0.0,51,0.00,,---,0.00,VWS V14.01,2013-03-25 09:50:00,
2013-03-25 03:55:00,16.9,1.9,30.21,SSW,204,0.0,0.0,51,0.00,,---,0.00,VWS V14.01,2013-03-25 09:55:00,
2013-03-25 04:00:00,16.5,1.1,30.21,SW,226,0.0,0.0,50,0.00,,---,0.00,VWS V14.01,2013-03-25 10:00:00,
2013-03-25 04:05:00,16.5,1.6,30.21,SSW,200,3.1,3.1,51,0.00,,---,0.00,VWS V14.01,2013-03-25 10:05:00,
2013-03-25 04:10:00,17.2,2.2,30.21,SSW,198,3.1,4.0,51,0.00,,---,0.00,VWS V14.01,2013-03-25 10:10:00,
2013-03-25 04:15:00,17.4,2.4,30.21,WSW,254,0.0,0.0,51,0.00,,---,0.00,VWS V14.01,2013-03-25 10:15:00,
2013-03-25 04:20:00,16.7,1.7,30.21,West,259,0.0,0.0,51,0.00,,---,0.00,VWS V14.01,2013-03-25 10:20:00,
2013-03-25 04:25:00,16.0,1.1,30.21,WSW,255,0.0,0.0,51,0.00,,---,0.00,VWS V14.01,2013-03-25 10:25:00,
2013-03-25 04:30:00,15.6,1.1,30.21,WSW,255,0.0,0.0,52,0.00,,---,0.00,VWS V14.01,2013-03-25 10:30:00,
2013-03-25 04:35:00,15.4,1.0,30.21,West,261,0.0,0.0,52,0.00,,---,0.00,VWS V14.01,2013-03-25 10:35:00,
2013-03-25 04:40:00,15.3,1.2,30.21,West,261,0.0,0.0,53,0.00,,---,0.00,VWS V14.01,2013-03-25 10:40:00,
2013-03-25 04:45:00,15.1,0.6,30.21,West,261,0.0,0.0,52,0.00,,---,0.00,VWS V14.01,2013-03-25 10:45:00,
2013-03-25 04:50:00,15.1,1.0,30.21,West,261,0.0,0.0,53,0.00,,---,0.00,VWS V14.01,2013-03-25 10:50:00,
2013-03-25 04:55:00,15.1,1.0,30.21,West,262,0.0,0.0,53,0.00,,---,0.00,VWS V14.01,2013-03-25 10:55:00,
2013-03-25 05:00:00,14.9,0.5,30.18,West,262,0.0,0.0,52,0.00,,---,0.00,VWS V14.01,2013-03-25 11:00:00,
2013-03-25 05:05:00,14.9,0.9,30.18,West,268,0.0,4.0,53,0.00,,---,0.00,VWS V14.01,2013-03-25 11:05:00,
2013-03-25 05:10:00,14.7,1.1,30.21,West,271,0.0,4.0,54,0.00,,---,0.00,VWS V14.01,2013-03-25 11:10:00,
2013-03-25 05:15:00,15.1,1.4,30.21,West,259,0.0,0.0,54,0.00,,---,0.00,VWS V14.01,2013-03-25 11:15:00,
2013-03-25 05:20:00,15.1,1.4,30.21,West,260,0.0,0.0,54,0.00,,---,0.00,VWS V14.01,2013-03-25 11:20:00,
2013-03-25 05:25:00,14.9,1.3,30.21,West,281,0.0,0.0,54,0.00,,---,0.00,VWS V14.01,2013-03-25 11:25:00,
2013-03-25 05:30:00,15.1,1.4,30.21,West,281,0.0,0.0,54,0.00,,---,0.00,VWS V14.01,2013-03-25 11:30:00,
2013-03-25 05:35:00,15.3,2.0,30.21,West,271,0.0,0.0,55,0.00,,---,0.00,VWS V14.01,2013-03-25 11:35:00,
2013-03-25 05:40:00,15.4,2.2,30.21,WSW,253,0.0,0.0,55,0.00,,---,0.00,VWS V14.01,2013-03-25 11:40:00,
2013-03-25 05:45:00,15.4,2.2,30.21,WNW,283,2.2,2.7,55,0.00,,---,0.00,VWS V14.01,2013-03-25 11:45:00,
2013-03-25 05:50:00,15.1,1.4,30.21,WSW,242,0.0,2.7,54,0.00,,---,0.00,VWS V14.01,2013-03-25 11:50:00,
2013-03-25 05:55:00,14.9,1.3,30.18,WSW,246,0.0,2.7,54,0.00,,---,0.00,VWS V14.01,2013-03-25 11:55:00,
2013-03-25 06:00:00,15.4,2.2,30.18,West,261,0.0,0.0,55,0.00,,---,0.00,VWS V14.01,2013-03-25 12:00:00,
2013-03-25 06:05:00,15.8,2.5,30.18,WNW,285,0.0,0.0,55,0.00,,---,0.00,VWS V14.01,2013-03-25 12:05:00,
2013-03-25 06:10:00,15.6,2.3,30.21,West,271,0.0,0.0,55,0.00,,---,0.00,VWS V14.01,2013-03-25 12:10:00,
2013-03-25 06:15:00,15.6,2.3,30.21,West,260,0.0,0.0,55,0.00,,---,0.00,VWS V14.01,2013-03-25 12:15:00,
2013-03-25 06:20:00,15.4,2.2,30.21,West,262,0.0,0.0,55,0.00,,---,0.00,VWS V14.01,2013-03-25 12:20:00,
2013-03-25 06:25:00,15.3,1.6,30.21,West,270,0.0,0.0,54,0.00,,---,0.00,VWS V14.01,2013-03-25 12:25:00,
2013-03-25 06:30:00,15.3,2.0,30.21,WSW,238,0.0,0.0,55,0.00,,---,0.00,VWS V14.01,2013-03-25 12:30:00,
2013-03-25 06:35:00,15.3,2.0,30.21,WSW,244,0.0,0.0,55,0.00,,---,0.00,VWS V14.01,2013-03-25 12:35:00,
2013-03-25 06:40:00,15.3,2.0,30.21,SSW,205,0.0,2.7,55,0.00,,---,0.00,VWS V14.01,2013-03-25 12:40:00,
2013-03-25 06:45:00,15.1,1.4,30.21,WSW,243,0.0,0.0,54,0.00,,---,0.00,VWS V14.01,2013-03-25 12:45:00,
2013-03-25 06:50:00,14.5,0.9,30.21,WSW,243,0.0,0.0,54,0.00,,---,0.00,VWS V14.01,2013-03-25 12:50:00,
2013-03-25 06:55:00,14.4,0.8,30.21,WNW,300,0.0,0.0,54,0.00,,---,0.00,VWS V14.01,2013-03-25 12:55:00,
2013-03-25 07:00:00,14.2,1.0,30.21,WSW,253,0.0,0.0,55,0.00,,---,0.00,VWS V14.01,2013-03-25 13:00:00,
2013-03-25 07:05:00,14.2,1.0,30.21,WSW,245,0.0,0.0,55,0.00,,---,0.00,VWS V14.01,2013-03-25 13:05:00,
2013-03-25 07:10:00,14.2,1.0,30.21,WSW,245,0.0,2.2,55,0.00,,---,0.00,VWS V14.01,2013-03-25 13:10:00,
2013-03-25 07:15:00,14.0,0.8,30.21,West,259,0.0,0.0,55,0.00,,---,0.00,VWS V14.01,2013-03-25 13:15:00,
2013-03-25 07:20:00,14.0,0.8,30.21,WSW,253,0.0,0.0,55,0.00,,---,0.00,VWS V14.01,2013-03-25 13:20:00,
2013-03-25 07:25:00,14.4,1.2,30.21,WSW,254,2.7,3.1,55,0.00,,---,0.00,VWS V14.01,2013-03-25 13:25:00,
2013-03-25 07:30:00,14.5,1.3,30.21,WSW,248,0.0,0.0,55,0.00,,---,0.00,VWS V14.01,2013-03-25 13:30:00,
2013-03-25 07:35:00,14.5,1.3,30.21,WSW,248,0.0,0.0,55,0.00,,---,0.00,VWS V14.01,2013-03-25 13:35:00,
2013-03-25 07:40:00,14.5,1.3,30.21,West,259,0.0,0.0,55,0.00,,---,0.00,VWS V14.01,2013-03-25 13:40:00,
2013-03-25 07:45:00,14.5,1.7,30.21,SW,223,0.0,0.0,56,0.00,,---,0.00,VWS V14.01,2013-03-25 13:45:00,
2013-03-25 07:50:00,14.5,1.7,30.21,WSW,251,0.0,0.0,56,0.00,,---,0.00,VWS V14.01,2013-03-25 13:50:00,
2013-03-25 07:55:00,14.7,1.9,30.21,WSW,248,0.0,0.0,56,0.00,,---,0.00,VWS V14.01,2013-03-25 13:55:00,
2013-03-25 08:00:00,15.4,2.9,30.21,WSW,249,0.0,0.0,57,0.00,,---,0.00,VWS V14.01,2013-03-25 14:00:00,
2013-03-25 08:05:00,16.5,4.0,30.21,WSW,247,0.0,0.0,57,0.00,,---,0.00,VWS V14.01,2013-03-25 14:05:00,
2013-03-25 08:10:00,18.0,5.3,30.21,WSW,247,0.0,0.0,57,0.00,,---,0.00,VWS V14.01,2013-03-25 14:10:00,
2013-03-25 08:15:00,19.2,6.5,30.21,WSW,247,0.0,0.0,57,0.00,,---,0.00,VWS V14.01,2013-03-25 14:15:00,
2013-03-25 08:20:00,20.3,7.5,30.21,WSW,247,0.0,0.0,57,0.00,,---,0.00,VWS V14.01,2013-03-25 14:20:00,
2013-03-25 08:25:00,21.4,8.1,30.21,WSW,247,0.0,0.0,56,0.00,,---,0.00,VWS V14.01,2013-03-25 14:25:00,
2013-03-25 08:30:00,22.5,8.8,30.21,WSW,247,0.0,0.0,55,0.00,,---,0.00,VWS V14.01,2013-03-25 14:30:00,
2013-03-25 08:35:00,23.2,9.0,30.21,WSW,247,0.0,0.0,54,0.00,,---,0.00,VWS V14.01,2013-03-25 14:35:00,
2013-03-25 08:40:00,24.3,9.2,30.21,WSW,247,0.0,0.0,52,0.00,,---,0.00,VWS V14.01,2013-03-25 14:40:00,
2013-03-25 08:45:00,25.2,9.1,30.21,WSW,247,0.0,0.0,50,0.00,,---,0.00,VWS V14.01,2013-03-25 14:45:00,
2013-03-25 08:50:00,26.1,8.6,30.21,WSW,247,0.0,0.0,47,0.00,,---,0.00,VWS V14.01,2013-03-25 14:50:00,
2013-03-25 08:55:00,26.8,7.3,30.21,NNW,343,0.0,0.0,43,0.00,,---,0.00,VWS V14.01,2013-03-25 14:55:00,
2013-03-25 09:00:00,27.0,6.4,30.21,North,357,0.0,0.0,41,0.00,,---,0.00,VWS V14.01,2013-03-25 15:00:00,
2013-03-25 09:05:00,26.6,6.1,30.21,North,0,0.0,0.0,41,0.00,,---,0.00,VWS V14.01,2013-03-25 15:05:00,
2013-03-25 09:10:00,26.8,6.2,30.21,North,9,3.6,4.0,41,0.00,,---,0.00,VWS V14.01,2013-03-25 15:10:00,
2013-03-25 09:15:00,27.0,6.4,30.21,North,0,3.6,3.6,41,0.00,,---,0.00,VWS V14.01,2013-03-25 15:15:00,
2013-03-25 09:20:00,27.1,6.6,30.21,North,7,2.7,4.0,41,0.00,,---,0.00,VWS V14.01,2013-03-25 15:20:00,
2013-03-25 09:25:00,27.9,7.2,30.21,North,6,0.0,4.0,41,0.00,,---,0.00,VWS V14.01,2013-03-25 15:25:00,
2013-03-25 09:30:00,27.9,7.2,30.21,NNE,20,0.0,4.0,41,0.00,,---,0.00,VWS V14.01,2013-03-25 15:30:00,
2013-03-25 09:35:00,28.0,7.4,30.21,North,4,2.2,4.0,41,0.00,,---,0.00,VWS V14.01,2013-03-25 15:35:00,
2013-03-25 09:40:00,28.4,7.7,30.21,North,1,3.1,4.0,41,0.00,,---,0.00,VWS V14.01,2013-03-25 15:40:00,
2013-03-25 09:45:00,28.6,7.3,30.21,North,4,2.7,3.6,40,0.00,,---,0.00,VWS V14.01,2013-03-25 15:45:00,
2013-03-25 09:50:00,28.9,7.7,30.21,North,5,3.6,5.4,40,0.00,,---,0.00,VWS V14.01,2013-03-25 15:50:00,
2013-03-25 09:55:00,29.5,7.6,30.21,North,0,6.7,6.7,39,0.00,,---,0.00,VWS V14.01,2013-03-25 15:55:00,
2013-03-25 10:00:00,29.8,7.3,30.21,North,2,3.1,3.6,38,0.00,,---,0.00,VWS V14.01,2013-03-25 16:00:00,
2013-03-25 10:05:00,30.7,8.1,30.21,North,6,3.1,4.9,38,0.00,,---,0.00,VWS V14.01,2013-03-25 16:05:00,
2013-03-25 10:10:00,31.3,7.4,30.21,North,4,4.9,6.3,36,0.00,,---,0.00,VWS V14.01,2013-03-25 16:10:00,
2013-03-25 10:15:00,32.2,8.9,30.21,North,6,3.6,3.6,37,0.00,,---,0.00,VWS V14.01,2013-03-25 16:15:00,
2013-03-25 10:20:00,32.7,8.7,30.21,NNE,14,3.1,4.5,36,0.00,,---,0.00,VWS V14.01,2013-03-25 16:20:00,
2013-03-25 10:25:00,33.3,8.6,30.21,NNE,19,3.6,5.4,35,0.00,,---,0.00,VWS V14.01,2013-03-25 16:25:00,
2013-03-25 10:30:00,33.3,7.9,30.21,North,7,3.1,3.6,34,0.00,,---,0.00,VWS V14.01,2013-03-25 16:30:00,
2013-03-25 10:35:00,34.3,8.9,30.21,NNE,31,0.0,4.9,34,0.00,,---,0.00,VWS V14.01,2013-03-25 16:35:00,
2013-03-25 10:41:00,34.9,8.7,30.18,North,357,5.4,5.4,33,0.00,,---,0.00,VWS V14.01,2013-03-25 16:41:00,
2013-03-25 10:45:00,34.5,8.4,30.18,North,9,4.9,5.4,33,0.00,,---,0.00,VWS V14.01,2013-03-25 16:45:00,
2013-03-25 10:51:00,35.2,9.0,30.18,North,357,4.0,5.8,33,0.00,,---,0.00,VWS V14.01,2013-03-25 16:51:00,
2013-03-25 10:56:00,35.4,8.5,30.18,North,6,2.7,6.3,32,0.00,,---,0.00,VWS V14.01,2013-03-25 16:56:00,
2013-03-25 11:01:00,36.1,9.1,30.18,North,357,2.2,4.0,32,0.00,,---,0.00,VWS V14.01,2013-03-25 17:01:00,
2013-03-25 11:06:00,37.6,9.7,30.18,NW,319,2.7,4.0,31,0.00,,---,0.00,VWS V14.01,2013-03-25 17:06:00,
2013-03-25 11:11:00,38.5,10.5,30.18,North,357,2.7,4.0,31,0.00,,---,0.00,VWS V14.01,2013-03-25 17:11:00,
2013-03-25 11:16:00,38.7,9.9,30.18,NE,37,2.7,3.6,30,0.00,,---,0.00,VWS V14.01,2013-03-25 17:16:00,
2013-03-25 11:21:00,39.6,10.7,30.18,NNW,341,2.7,4.9,30,0.00,,---,0.00,VWS V14.01,2013-03-25 17:21:00,
2013-03-25 11:26:00,40.8,11.0,30.18,North,357,0.0,5.4,29,0.00,,---,0.00,VWS V14.01,2013-03-25 17:26:00,
2013-03-25 11:31:00,42.1,12.1,30.18,ESE,114,0.0,3.1,29,0.00,,---,0.00,VWS V14.01,2013-03-25 17:31:00,
2013-03-25 11:36:00,43.5,12.6,30.18,NNE,33,3.1,4.0,28,0.00,,---,0.00,VWS V14.01,2013-03-25 17:36:00,
2013-03-25 11:41:00,42.6,11.8,30.18,North,5,4.0,4.9,28,0.00,,---,0.00,VWS V14.01,2013-03-25 17:41:00,
2013-03-25 11:46:00,42.3,11.5,30.18,North,357,4.9,4.9,28,0.00,,---,0.00,VWS V14.01,2013-03-25 17:46:00,
2013-03-25 11:51:00,43.3,12.4,30.18,ENE,74,2.2,4.9,28,0.00,,---,0.00,VWS V14.01,2013-03-25 17:51:00,
2013-03-25 11:56:00,45.0,11.3,30.18,East,80,4.0,5.8,25,0.00,,---,0.00,VWS V14.01,2013-03-25 17:56:00,
2013-03-25 12:01:00,45.3,8.7,30.18,NW,313,0.0,3.6,22,0.00,,---,0.00,VWS V14.01,2013-03-25 18:01:00,
2013-03-25 12:06:00,46.2,12.4,30.18,ENE,69,0.0,6.3,25,0.00,,---,0.00,VWS V14.01,2013-03-25 18:06:00,
2013-03-25 12:11:00,46.8,11.9,30.15,ENE,76,2.7,6.3,24,0.00,,---,0.00,VWS V14.01,2013-03-25 18:11:00,
2013-03-25 12:16:00,46.6,9.8,30.15,North,7,0.0,6.3,22,0.00,,---,0.00,VWS V14.01,2013-03-25 18:16:00,
2013-03-25 12:21:00,47.1,10.2,30.15,NE,53,3.1,6.3,22,0.00,,---,0.00,VWS V14.01,2013-03-25 18:21:00,
2013-03-25 12:26:00,47.8,10.9,30.15,East,92,2.7,6.3,22,0.00,,---,0.00,VWS V14.01,2013-03-25 18:26:00,
2013-03-25 12:31:00,48.6,10.4,30.15,East,98,0.0,4.9,21,0.00,,---,0.00,VWS V14.01,2013-03-25 18:31:00,
2013-03-25 12:36:00,49.1,10.9,30.15,NNE,22,2.7,4.9,21,0.00,,---,0.00,VWS V14.01,2013-03-25 18:36:00,
2013-03-25 12:41:00,49.6,11.3,30.15,East,97,3.6,5.4,21,0.00,,---,0.00,VWS V14.01,2013-03-25 18:41:00,
2013-03-25 12:46:00,50.0,11.6,30.15,East,90,3.6,4.9,21,0.00,,---,0.00,VWS V14.01,2013-03-25 18:46:00,
2013-03-25 12:51:00,50.4,11.9,30.15,East,96,3.1,5.4,21,0.00,,---,0.00,VWS V14.01,2013-03-25 18:51:00,
2013-03-25 12:57:00,50.2,11.8,30.15,SE,135,3.1,6.7,21,0.00,,---,0.00,VWS V14.01,2013-03-25 18:57:00,
2013-03-25 13:02:00,49.6,11.3,30.15,ESE,115,2.7,5.4,21,0.00,,---,0.00,VWS V14.01,2013-03-25 19:02:00,
2013-03-25 13:07:00,49.6,9.1,30.15,ESE,110,0.0,5.4,19,0.00,,---,0.00,VWS V14.01,2013-03-25 19:07:00,
2013-03-25 13:12:00,50.4,11.9,30.15,ENE,58,5.8,5.8,21,0.00,,---,0.00,VWS V14.01,2013-03-25 19:12:00,
2013-03-25 13:17:00,50.5,9.8,30.15,ESE,116,4.0,5.4,19,0.00,,---,0.00,VWS V14.01,2013-03-25 19:17:00,
2013-03-25 13:22:00,50.7,10.0,30.15,NE,53,3.1,7.6,19,0.00,,---,0.00,VWS V14.01,2013-03-25 19:22:00,
2013-03-25 13:27:00,50.5,9.8,30.12,ENE,62,4.9,7.6,19,0.00,,---,0.00,VWS V14.01,2013-03-25 19:27:00,
2013-03-25 13:32:00,50.2,9.5,30.12,ENE,69,0.0,3.1,19,0.00,,---,0.00,VWS V14.01,2013-03-25 19:32:00,
2013-03-25 13:37:00,51.3,10.4,30.12,SE,146,5.4,5.8,19,0.00,,---,0.00,VWS V14.01,2013-03-25 19:37:00,
2013-03-25 13:42:00,51.6,10.7,30.12,SSE,147,5.4,5.8,19,0.00,,---,0.00,VWS V14.01,2013-03-25 19:42:00,
2013-03-25 13:47:00,51.8,9.7,30.12,NE,52,3.6,5.8,18,0.00,,---,0.00,VWS V14.01,2013-03-25 19:47:00,
2013-03-25 13:52:00,51.6,10.7,30.12,WSW,256,0.0,5.8,19,0.00,,---,0.00,VWS V14.01,2013-03-25 19:52:00,
2013-03-25 13:57:00,51.4,10.6,30.12,NNE,12,0.0,5.8,19,0.00,,---,0.00,VWS V14.01,2013-03-25 19:57:00,
2013-03-25 14:02:00,51.6,10.7,30.12,West,277,3.6,4.0,19,0.00,,---,0.00,VWS V14.01,2013-03-25 20:02:00,
2013-03-25 14:07:00,51.8,9.7,30.12,East,101,3.1,5.8,18,0.00,,---,0.00,VWS V14.01,2013-03-25 20:07:00,
2013-03-25 14:12:00,51.8,9.7,30.12,SE,133,2.7,7.2,18,0.00,,---,0.00,VWS V14.01,2013-03-25 20:12:00,
2013-03-25 14:17:00,52.2,10.0,30.12,SSE,159,0.0,2.7,18,0.00,,---,0.00,VWS V14.01,2013-03-25 20:17:00,
2013-03-25 14:22:00,53.4,11.0,30.12,East,87,4.9,5.4,18,0.00,,---,0.00,VWS V14.01,2013-03-25 20:22:00,
2013-03-25 14:27:00,54.0,11.4,30.12,SE,144,4.9,5.4,18,0.00,,---,0.00,VWS V14.01,2013-03-25 20:27:00,
2013-03-25 14:32:00,54.0,11.4,30.12,SE,144,5.8,6.3,18,0.00,,---,0.00,VWS V14.01,2013-03-25 20:32:00,
2013-03-25 14:37:00,53.6,11.1,30.12,SSE,147,3.1,8.1,18,0.00,,---,0.00,VWS V14.01,2013-03-25 20:37:00,
2013-03-25 14:42:00,52.9,10.6,30.12,SSW,200,5.8,8.1,18,0.00,,---,0.00,VWS V14.01,2013-03-25 20:42:00,
2013-03-25 14:47:00,52.2,10.0,30.12,South,170,5.4,8.1,18,0.00,,---,0.00,VWS V14.01,2013-03-25 20:47:00,
2013-03-25 14:52:00,52.7,10.4,30.12,South,173,3.6,8.1,18,0.00,,---,0.00,VWS V14.01,2013-03-25 20:52:00,
2013-03-25 14:57:00,53.8,11.3,30.12,WSW,250,0.0,8.1,18,0.00,,---,0.00,VWS V14.01,2013-03-25 20:57:00,
2013-03-25 15:02:00,54.3,11.7,30.12,South,183,2.2,4.9,18,0.00,,---,0.00,VWS V14.01,2013-03-25 21:02:00,
2013-03-25 15:07:00,54.5,11.9,30.12,East,79,3.6,6.3,18,0.00,,---,0.00,VWS V14.01,2013-03-25 21:07:00,
2013-03-25 15:12:00,55.2,12.5,30.09,ESE,109,4.9,7.6,18,0.00,,---,0.00,VWS V14.01,2013-03-25 21:12:00,
2013-03-25 15:17:00,55.9,11.8,30.09,ENE,77,0.0,3.6,17,0.00,,---,0.00,VWS V14.01,2013-03-25 21:17:00,
2013-03-25 15:22:00,55.8,11.6,30.09,NW,324,5.8,5.8,17,0.00,,---,0.00,VWS V14.01,2013-03-25 21:22:00,
2013-03-25 15:27:00,52.2,10.0,30.09,NNE,20,5.4,5.8,18,0.00,,---,0.00,VWS V14.01,2013-03-25 21:27:00,
2013-03-25 15:32:00,51.8,9.7,30.09,NNE,16,3.6,5.8,18,0.00,,---,0.00,VWS V14.01,2013-03-25 21:32:00,
2013-03-25 15:37:00,53.1,10.7,30.09,North,0,3.1,5.8,18,0.00,,---,0.00,VWS V14.01,2013-03-25 21:37:00,
2013-03-25 15:42:00,53.2,10.9,30.09,East,95,3.1,6.3,18,0.00,,---,0.00,VWS V14.01,2013-03-25 21:42:00,
2013-03-25 15:47:00,54.0,11.4,30.09,ESE,105,5.4,5.4,18,0.00,,---,0.00,VWS V14.01,2013-03-25 21:47:00,
2013-03-25 15:52:00,54.7,12.0,30.09,ENE,68,2.2,5.4,18,0.00,,---,0.00,VWS V14.01,2013-03-25 21:52:00,
2013-03-25 15:57:00,54.0,11.4,30.09,SE,145,3.6,5.4,18,0.00,,---,0.00,VWS V14.01,2013-03-25 21:57:00,
2013-03-25 16:02:00,53.1,10.7,30.09,West,265,3.1,3.6,18,0.00,,---,0.00,VWS V14.01,2013-03-25 22:02:00,
2013-03-25 16:07:00,52.7,10.4,30.09,SSE,155,0.0,3.6,18,0.00,,---,0.00,VWS V14.01,2013-03-25 22:07:00,
2013-03-25 16:12:00,51.8,9.7,30.09,NNW,333,2.7,6.7,18,0.00,,---,0.00,VWS V14.01,2013-03-25 22:12:00,
2013-03-25 16:17:00,50.9,10.1,30.09,NW,314,4.0,6.3,19,0.00,,---,0.00,VWS V14.01,2013-03-25 22:17:00,
2013-03-25 16:22:00,50.9,10.1,30.09,North,10,4.0,6.3,19,0.00,,---,0.00,VWS V14.01,2013-03-25 22:22:00,
2013-03-25 16:27:00,51.8,9.7,30.09,NNE,12,4.0,6.3,18,0.00,,---,0.00,VWS V14.01,2013-03-25 22:27:00,
2013-03-25 16:32:00,51.8,9.7,30.09,NNE,27,4.9,6.3,18,0.00,,---,0.00,VWS V14.01,2013-03-25 22:32:00,
2013-03-25 16:37:00,52.0,9.8,30.09,North,9,2.7,6.3,18,0.00,,---,0.00,VWS V14.01,2013-03-25 22:37:00,
2013-03-25 16:42:00,51.6,10.7,30.06,North,5,5.8,6.3,19,0.00,,---,0.00,VWS V14.01,2013-03-25 22:42:00,
2013-03-25 16:47:00,50.4,9.7,30.06,NE,40,0.0,5.8,19,0.00,,---,0.00,VWS V14.01,2013-03-25 22:47:00,
2013-03-25 16:52:00,51.1,10.3,30.06,SSE,154,0.0,5.8,19,0.00,,---,0.00,VWS V14.01,2013-03-25 22:52:00,
2013-03-25 16:57:00,52.9,10.6,30.06,SE,124,2.7,5.8,18,0.00,,---,0.00,VWS V14.01,2013-03-25 22:57:00,
2013-03-25 17:02:00,53.8,11.3,30.06,NE,53,2.2,4.0,18,0.00,,---,0.00,VWS V14.01,2013-03-25 23:02:00,
2013-03-25 17:07:00,52.7,10.4,30.06,North,11,6.3,6.3,18,0.00,,---,0.00,VWS V14.01,2013-03-25 23:07:00,
2013-03-25 17:12:00,51.6,10.7,30.06,North,0,7.6,8.7,19,0.00,,---,0.00,VWS V14.01,2013-03-25 23:12:00,
2013-03-25 17:17:00,51.1,10.3,30.06,NNW,327,2.7,6.3,19,0.00,,---,0.00,VWS V14.01,2013-03-25 23:17:00,
2013-03-25 17:22:00,50.4,9.7,30.06,NNE,25,3.6,6.3,19,0.00,,---,0.00,VWS V14.01,2013-03-25 23:22:00,
2013-03-25 17:27:00,50.2,9.5,30.06,NNE,18,7.6,7.6,19,0.00,,---,0.00,VWS V14.01,2013-03-25 23:27:00,
2013-03-25 17:32:00,49.8,9.2,30.06,NNE,23,0.0,6.3,19,0.00,,---,0.00,VWS V14.01,2013-03-25 23:32:00,
2013-03-25 17:37:00,50.5,9.8,30.06,NE,46,2.2,6.3,19,0.00,,---,0.00,VWS V14.01,2013-03-25 23:37:00,
2013-03-25 17:42:00,51.6,10.7,30.06,NNE,25,3.1,6.3,19,0.00,,---,0.00,VWS V14.01,2013-03-25 23:42:00,
2013-03-25 17:47:00,50.5,9.8,30.06,North,10,4.0,6.3,19,0.00,,---,0.00,VWS V14.01,2013-03-25 23:47:00,
2013-03-25 17:53:00,50.2,9.5,30.06,NNE,27,0.0,6.3,19,0.00,,---,0.00,VWS V14.01,2013-03-25 23:53:00,
2013-03-25 17:58:00,50.0,9.4,30.06,North,0,3.6,6.3,19,0.00,,---,0.00,VWS V14.01,2013-03-25 23:58:00,
2013-03-25 18:03:00,49.8,9.2,30.06,NNE,15,4.5,7.6,19,0.00,,---,0.00,VWS V14.01,2013-03-26 00:03:00,
2013-03-25 18:08:00,49.3,8.8,30.06,North,353,0.0,7.6,19,0.00,,---,0.00,VWS V14.01,2013-03-26 00:08:00,
2013-03-25 18:13:00,49.3,8.8,30.06,NE,55,2.2,7.6,19,0.00,,---,0.00,VWS V14.01,2013-03-26 00:13:00,
2013-03-25 18:18:00,48.9,8.5,30.06,NE,34,2.2,2.7,19,0.00,,---,0.00,VWS V14.01,2013-03-26 00:18:00,
2013-03-25 18:23:00,48.7,8.3,30.06,North,7,0.0,5.4,19,0.00,,---,0.00,VWS V14.01,2013-03-26 00:23:00,
2013-03-25 18:28:00,48.4,8.0,30.06,North,6,6.3,6.3,19,0.00,,---,0.00,VWS V14.01,2013-03-26 00:28:00,
2013-03-25 18:33:00,48.2,7.9,30.06,North,357,0.0,4.0,19,0.00,,---,0.00,VWS V14.01,2013-03-26 00:33:00,
2013-03-25 18:38:00,48.2,7.9,30.06,North,2,2.7,4.0,19,0.00,,---,0.00,VWS V14.01,2013-03-26 00:38:00,
2013-03-25 18:43:00,48.0,7.7,30.06,NNE,16,0.0,4.0,19,0.00,,---,0.00,VWS V14.01,2013-03-26 00:43:00,
2013-03-25 18:48:00,47.7,7.4,30.06,North,9,0.0,0.0,19,0.00,,---,0.00,VWS V14.01,2013-03-26 00:48:00,
2013-03-25 18:53:00,47.3,7.1,30.06,NNW,345,2.2,5.8,19,0.00,,---,0.00,VWS V14.01,2013-03-26 00:53:00,
2013-03-25 18:58:00,46.8,6.7,30.06,North,11,0.0,5.8,19,0.00,,---,0.00,VWS V14.01,2013-03-26 00:58:00,
2013-03-25 19:03:00,46.4,6.4,30.06,North,3,0.0,0.0,19,0.00,,---,0.00,VWS V14.01,2013-03-26 01:03:00,
2013-03-25 19:08:00,46.2,7.4,30.06,North,7,2.7,3.6,20,0.00,,---,0.00,VWS V14.01,2013-03-26 01:08:00,
2013-03-25 19:13:00,45.9,7.1,30.06,North,3,0.0,4.0,20,0.00,,---,0.00,VWS V14.01,2013-03-26 01:13:00,
2013-03-25 19:18:00,45.3,6.6,30.06,North,2,0.0,0.0,20,0.00,,---,0.00,VWS V14.01,2013-03-26 01:18:00,
2013-03-25 19:23:00,45.1,6.5,30.06,North,2,0.0,0.0,20,0.00,,---,0.00,VWS V14.01,2013-03-26 01:23:00,
2013-03-25 19:28:00,44.6,6.0,30.06,North,2,0.0,0.0,20,0.00,,---,0.00,VWS V14.01,2013-03-26 01:28:00,
2013-03-25 19:33:00,44.2,5.7,30.06,North,2,0.0,0.0,20,0.00,,---,0.00,VWS V14.01,2013-03-26 01:33:00,
2013-03-25 19:38:00,43.9,5.4,30.06,North,2,0.0,0.0,20,0.00,,---,0.00,VWS V14.01,2013-03-26 01:38:00,
2013-03-25 19:43:00,43.5,5.1,30.06,North,2,0.0,0.0,20,0.00,,---,0.00,VWS V14.01,2013-03-26 01:43:00,
2013-03-25 19:48:00,43.5,5.1,30.06,North,2,0.0,0.0,20,0.00,,---,0.00,VWS V14.01,2013-03-26 01:48:00,
2013-03-25 19:53:00,43.0,7.7,30.06,North,2,0.0,0.0,23,0.00,,---,0.00,VWS V14.01,2013-03-26 01:53:00,
2013-03-25 19:58:00,42.8,7.6,30.06,North,2,0.0,0.0,23,0.00,,---,0.00,VWS V14.01,2013-03-26 01:58:00,
2013-03-25 20:03:00,42.3,7.1,30.06,North,2,0.0,0.0,23,0.00,,---,0.00,VWS V14.01,2013-03-26 02:03:00,
2013-03-25 20:08:00,41.9,6.8,30.06,North,0,0.0,0.0,23,0.00,,---,0.00,VWS V14.01,2013-03-26 02:08:00,
2013-03-25 20:13:00,41.9,6.8,30.06,NNW,331,0.0,0.0,23,0.00,,---,0.00,VWS V14.01,2013-03-26 02:13:00,
2013-03-25 20:18:00,41.9,6.8,30.06,WNW,303,0.0,0.0,23,0.00,,---,0.00,VWS V14.01,2013-03-26 02:18:00,
2013-03-25 20:23:00,41.9,6.8,30.06,WNW,303,0.0,0.0,23,0.00,,---,0.00,VWS V14.01,2013-03-26 02:23:00,
2013-03-25 20:28:00,41.9,6.8,30.06,WNW,303,0.0,0.0,23,0.00,,---,0.00,VWS V14.01,2013-03-26 02:28:00,
2013-03-25 20:33:00,40.5,5.6,30.06,WNW,303,0.0,0.0,23,0.00,,---,0.00,VWS V14.01,2013-03-26 02:33:00,
2013-03-25 20:38:00,39.9,5.1,30.06,WNW,301,0.0,0.0,23,0.00,,---,0.00,VWS V14.01,2013-03-26 02:38:00,
2013-03-25 20:43:00,39.0,5.3,30.06,WNW,293,0.0,0.0,24,0.00,,---,0.00,VWS V14.01,2013-03-26 02:43:00,
2013-03-25 20:48:00,38.1,6.3,30.06,WNW,293,0.0,0.0,26,0.00,,---,0.00,VWS V14.01,2013-03-26 02:48:00,
2013-03-25 20:53:00,37.6,5.8,30.06,WNW,287,0.0,0.0,26,0.00,,---,0.00,VWS V14.01,2013-03-26 02:53:00,
2013-03-25 20:58:00,36.9,6.0,30.06,West,277,0.0,0.0,27,0.00,,---,0.00,VWS V14.01,2013-03-26 02:58:00,
2013-03-25 21:03:00,36.5,8.0,30.06,West,277,0.0,0.0,30,0.00,,---,0.00,VWS V14.01,2013-03-26 03:03:00,
2013-03-25 21:08:00,36.1,7.7,30.06,West,277,0.0,0.0,30,0.00,,---,0.00,VWS V14.01,2013-03-26 03:08:00,
2013-03-25 21:13:00,36.1,7.7,30.06,West,273,0.0,0.0,30,0.00,,---,0.00,VWS V14.01,2013-03-26 03:13:00,
2013-03-25 21:18:00,36.0,7.6,30.06,West,265,0.0,0.0,30,0.00,,---,0.00,VWS V14.01,2013-03-26 03:18:00,
2013-03-25 21:23:00,35.6,7.2,30.06,West,264,0.0,0.0,30,0.00,,---,0.00,VWS V14.01,2013-03-26 03:23:00,
2013-03-25 21:28:00,35.1,7.5,30.06,South,171,0.0,0.0,31,0.00,,---,0.00,VWS V14.01,2013-03-26 03:28:00,
2013-03-25 21:33:00,34.9,8.0,30.06,SW,233,0.0,0.0,32,0.00,,---,0.00,VWS V14.01,2013-03-26 03:33:00,
2013-03-25 21:38:00,34.7,9.2,30.06,West,275,4.0,4.0,34,0.00,,---,0.00,VWS V14.01,2013-03-26 03:38:00,
2013-03-25 21:43:00,34.5,9.1,30.06,West,263,0.0,4.0,34,0.00,,---,0.00,VWS V14.01,2013-03-26 03:43:00,
2013-03-25 21:48:00,34.7,9.9,30.06,WNW,295,0.0,0.0,35,0.00,,---,0.00,VWS V14.01,2013-03-26 03:48:00,
2013-03-25 21:53:00,34.9,10.6,30.06,West,281,0.0,0.0,36,0.00,,---,0.00,VWS V14.01,2013-03-26 03:53:00,
2013-03-25 21:58:00,34.9,10.6,30.06,West,266,0.0,0.0,36,0.00,,---,0.00,VWS V14.01,2013-03-26 03:58:00,
2013-03-25 22:00:00,34.9,10.6,30.06,West,266,0.0,0.0,36,0.00,,---,0.00,VWS V14.01,2013-03-26 04:00:00,
2013-03-25 22:05:00,35.1,10.8,30.06,West,280,0.0,0.0,36,0.00,,---,0.00,VWS V14.01,2013-03-26 04:05:00,
2013-03-25 22:10:00,35.1,10.8,30.06,West,270,0.0,0.0,36,0.00,,---,0.00,VWS V14.01,2013-03-26 04:10:00,
2013-03-25 22:15:00,35.2,11.6,30.06,West,273,0.0,0.0,37,0.00,,---,0.00,VWS V14.01,2013-03-26 04:15:00,
2013-03-25 22:20:00,35.4,11.8,30.06,West,277,0.0,3.6,37,0.00,,---,0.00,VWS V14.01,2013-03-26 04:20:00,
2013-03-25 22:25:00,35.4,11.8,30.06,West,265,0.0,3.6,37,0.00,,---,0.00,VWS V14.01,2013-03-26 04:25:00,
2013-03-25 22:30:00,35.2,11.6,30.06,West,267,0.0,0.0,37,0.00,,---,0.00,VWS V14.01,2013-03-26 04:30:00,
2013-03-25 22:35:00,35.1,11.4,30.06,West,267,0.0,0.0,37,0.00,,---,0.00,VWS V14.01,2013-03-26 04:35:00,
2013-03-25 22:40:00,34.9,11.3,30.06,West,267,0.0,0.0,37,0.00,,---,0.00,VWS V14.01,2013-03-26 04:40:00,
2013-03-25 22:45:00,34.9,11.3,30.06,WSW,255,0.0,0.0,37,0.00,,---,0.00,VWS V14.01,2013-03-26 04:45:00,
2013-03-25 22:50:00,34.7,11.1,30.06,WSW,251,0.0,0.0,37,0.00,,---,0.00,VWS V14.01,2013-03-26 04:50:00,
2013-03-25 22:55:00,34.3,10.8,30.06,SSE,154,0.0,0.0,37,0.00,,---,0.00,VWS V14.01,2013-03-26 04:55:00,
2013-03-25 23:00:00,34.2,11.2,30.06,SSW,192,0.0,0.0,38,0.00,,---,0.00,VWS V14.01,2013-03-26 05:00:00,
2013-03-25 23:05:00,34.3,12.5,30.06,South,190,0.0,3.1,40,0.00,,---,0.00,VWS V14.01,2013-03-26 05:05:00,
2013-03-25 23:10:00,34.3,12.5,30.06,SSW,196,0.0,3.1,40,0.00,,---,0.00,VWS V14.01,2013-03-26 05:10:00,
2013-03-25 23:15:00,34.3,12.5,30.06,SSW,196,0.0,0.0,40,0.00,,---,0.00,VWS V14.01,2013-03-26 05:15:00,
2013-03-25 23:20:00,34.3,12.5,30.06,SSW,196,0.0,0.0,40,0.00,,---,0.00,VWS V14.01,2013-03-26 05:20:00,
2013-03-25 23:25:00,34.3,12.5,30.06,SSW,196,0.0,0.0,40,0.00,,---,0.00,VWS V14.01,2013-03-26 05:25:00,
2013-03-25 23:30:00,34.5,12.7,30.06,SSW,197,0.0,0.0,40,0.00,,---,0.00,VWS V14.01,2013-03-26 05:30:00,
2013-03-25 23:35:00,34.5,12.7,30.06,SSW,197,0.0,0.0,40,0.00,,---,0.00,VWS V14.01,2013-03-26 05:35:00,
2013-03-25 23:40:00,34.5,13.3,30.06,SSW,197,0.0,0.0,41,0.00,,---,0.00,VWS V14.01,2013-03-26 05:40:00,
2013-03-25 23:45:00,34.3,13.1,30.06,SSW,197,0.0,0.0,41,0.00,,---,0.00,VWS V14.01,2013-03-26 05:45:00,
2013-03-25 23:50:00,34.3,13.1,30.06,SSW,197,0.0,0.0,41,0.00,,---,0.00,VWS V14.01,2013-03-26 05:50:00,
2013-03-25 23:55:00,34.5,13.3,30.06,SSW,197,0.0,0.0,41,0.00,,---,0.00,VWS V14.01,2013-03-26 05:55:00,